GFSSE_con_3kmhel_015.txt.gz
Helicity
-23 58 36 -67 -47 -60 -35 -23 8 9 19 34 26 26 18 17 9 5 4 1 0 6 8 -4 -20 -15 -16 7 5 1 -2 -14 4 3 8 7 17 11 6 13 37 18 24
12 -46 -75 -58 -57 -58 -50 -19 5 13 21 12 5 10 16 14 8 -1 0 1 6 10 16 -4 -22 -19 -4 10 13 10 1 -1 14 3 33 23 29 16 23 10 26 7 11
-50 -79 -47 -36 -50 -52 -44 -25 -5 2 7 10 2 10 9 10 5 4 9 8 9 13 18 1 -20 -23 5 5 23 24 8 11 26 12 15 30 23 15 32 25 20 12 15
-39 -51 -28 -40 -41 -44 -41 -27 -20 -9 0 3 2 3 8 3 -2 12 17 13 15 18 13 -23 -25 -19 -1 21 23 20 4 6 24 45 25 26 25 17 29 27 10 5 6
-37 -44 -40 -35 -35 -41 -32 -30 -26 -15 -5 -7 -12 -1 3 5 12 16 19 22 18 23 22 -17 -16 -12 -28 19 17 7 6 3 9 -6 23 48 5 18 17 14 10 14 16
-17 -33 -30 -25 -29 -30 -24 -30 -28 -22 -18 -20 -18 -3 4 11 17 18 18 13 19 28 31 29 28 -16 -44 17 19 -24 -12 25 38 13 21 47 23 27 20 5 7 28 27
-7 -22 -27 -20 -20 -21 -19 -26 -30 -25 -18 -20 -14 -2 8 12 20 19 11 21 36 42 40 35 28 -30 -46 -26 -46 -69 -39 26 5 18 44 37 35 38 25 15 14 19 29
8 -17 -25 -19 -17 -12 -11 -23 -24 -16 -12 -8 2 9 10 13 23 21 28 37 39 40 31 28 31 25 21 24 -12 -32 -24 51 54 64 59 13 63 61 48 20 23 18 15
17 3 -21 -31 -22 -12 -14 -16 -18 -15 -2 3 12 10 12 13 18 34 41 48 50 39 36 27 29 20 4 24 26 -31 26 98 14 23 49 47 62 79 63 43 27 23 25
29 15 -13 -31 -35 -26 -22 -14 -11 -6 0 8 6 11 13 10 32 50 59 66 50 44 23 22 30 37 43 60 51 47 -4 122 75 67 56 6 71 63 63 56 40 32 28
11 -6 -10 -20 -28 -28 -27 -15 -9 -2 2 3 5 20 14 21 34 49 29 39 43 21 19 41 38 55 68 81 30 11 7 106 40 9 -46 -18 57 78 69 42 38 39 32
-4 -6 -30 -21 -19 -17 -18 -26 -15 -7 -10 -6 1 2 1 26 -9 5 20 33 20 -34 10 22 28 41 23 41 31 51 37 66 27 -34 -27 -16 37 82 70 50 40 38 33
24 -18 8 -22 -14 -6 -10 -7 -16 -19 -19 -20 -2 15 20 9 -7 28 18 30 31 55 4 24 1 -1 29 46 3 13 1 28 22 11 -18 -46 24 62 58 59 58 48 40
27 43 30 -14 -9 -41 22 6 -21 -37 -49 -48 -36 -14 15 28 42 26 -2 23 15 16 17 6 5 20 57 20 16 -21 -28 2 18 11 13 23 12 50 60 51 52 51 40
97 92 57 28 23 -2 34 9 -28 -30 -12 -3 19 -1 4 49 33 12 23 3 38 13 13 15 39 32 1 -6 33 48 52 20 33 43 15 32 24 30 56 53 51 36 45
161 147 95 60 50 23 -26 -14 4 3 69 74 77 74 12 28 50 60 25 28 41 41 26 46 12 18 -9 -3 22 24 61 36 47 87 45 31 39 33 30 45 40 37 34
215 159 106 54 63 32 -5 -13 -24 -7 -11 -10 25 47 43 45 33 60 30 42 18 70 34 40 47 16 30 30 43 48 59 42 34 19 31 55 31 22 19 20 29 37 30
152 176 124 73 71 33 48 14 -15 -5 16 -26 32 18 47 57 63 36 28 21 24 40 40 46 40 45 29 52 45 -1 36 38 16 19 10 30 24 14 1 10 14 25 31
188 236 180 143 95 74 54 44 14 -20 -13 -30 9 14 62 94 47 31 30 33 39 32 64 82 57 55 49 54 31 65 42 30 14 11 32 0 27 38 20 -7 5 2 6
214 238 156 167 155 85 59 60 16 -27 -27 -48 7 53 54 55 57 31 11 65 40 78 81 57 49 47 47 45 33 16 -8 -5 29 20 47 50 81 33 14 -12 -10 -3 11
175 237 216 235 194 169 115 103 37 -6 -21 1 23 47 76 85 54 36 52 59 67 61 75 61 64 59 28 41 22 -1 -42 -20 52 31 78 98 131 76 120 56 31 54 37
198 244 235 212 246 243 197 125 63 38 -25 7 4 -7 46 98 64 97 80 48 37 58 71 83 54 51 33 20 41 28 26 1 24 41 53 27 85 87 46 40 35 39 60
240 255 251 246 261 277 232 168 106 56 7 -21 33 81 137 138 134 88 64 57 36 77 129 116 55 64 46 3 27 40 44 37 50 71 56 28 58 24 28 35 30 31 45
273 292 270 265 245 266 318 273 171 100 31 -37 18 100 90 120 120 109 90 55 82 84 118 79 71 59 62 29 -5 35 32 49 79 71 63 37 61 34 34 -14 30 28 53
421 395 355 296 250 235 295 275 184 104 43 -12 -15 118 137 127 114 111 74 80 84 71 72 116 89 72 98 127 81 49 45 58 93 104 86 53 50 35 28 57 50 35 82
493 500 450 349 272 275 243 267 186 129 50 14 -20 50 92 140 74 50 102 129 96 79 109 87 58 52 50 108 107 105 86 54 82 101 132 127 124 88 20 8 47 79 76

GFSSE_con_3kmhel_021.txt.gz
Helicity
-45 -20 -52 -67 -51 -24 -11 0 6 5 12 22 18 30 25 11 9 11 10 8 2 -4 -15 -17 2 12 17 19 20 27 10 10 25 43 34 16 10 19 13 22 29 32 35
-65 -84 -87 -69 -48 -27 -14 -4 -13 6 20 13 22 21 10 5 9 10 9 4 -8 -24 -27 -17 -5 -8 4 19 21 26 30 39 33 28 19 17 6 9 -4 7 14 20 23
-81 -101 -99 -61 -50 -29 -22 -28 -17 4 9 10 15 14 4 3 6 8 4 1 -7 -27 -25 -18 -17 -22 -14 7 19 25 35 25 40 34 19 26 29 20 7 -6 4 11 15
-76 -79 -96 -72 -49 -36 -22 -34 -15 -3 7 4 12 4 5 9 9 6 5 5 7 23 -32 -22 -24 -32 -22 3 25 39 45 38 40 40 1 18 2 9 13 1 13 8 3
-91 -97 -84 -70 -47 -34 -30 -27 -19 -7 2 3 4 4 13 13 8 6 14 21 26 29 8 -24 -2 -19 -17 -5 12 25 5 15 19 41 17 -8 -16 2 7 0 0 -1 4
-95 -101 -70 -60 -40 -26 -29 -20 -17 -9 -2 0 5 11 13 14 12 14 21 32 35 32 17 4 10 -10 -21 -14 -3 25 35 53 -11 -6 16 10 -4 13 20 18 0 13 23
-101 -90 -72 -50 -32 -21 -24 -20 -19 -14 -8 2 8 14 12 12 14 20 28 40 37 34 25 14 11 1 -17 -8 15 42 66 58 55 3 3 12 -1 12 28 36 35 25 21
-67 -78 -65 -43 -27 -22 -18 -17 -16 -9 -4 8 12 8 10 15 19 19 27 28 27 22 17 14 7 12 10 19 34 40 45 63 66 16 12 2 7 17 26 45 46 34 25
-56 -60 -64 -53 -34 -15 -13 -7 -2 1 5 12 11 8 9 23 27 20 20 19 16 15 11 12 17 14 9 19 48 59 55 65 71 64 17 10 30 32 31 31 40 37 27
-46 -48 -48 -50 -43 -31 -22 -1 5 4 11 15 16 10 16 24 23 22 18 18 17 16 14 11 2 3 0 15 40 65 71 73 38 50 46 -7 24 33 30 34 31 40 30
-48 -45 -44 -39 -32 -24 -23 -11 5 14 19 19 18 15 20 13 22 20 23 21 11 13 20 10 8 5 -4 -26 24 51 59 29 46 39 0 17 34 32 33 24 27 40 38
-38 -42 -35 -30 -14 -13 -8 -13 -15 -9 -13 -11 -7 1 4 9 11 22 29 13 20 10 1 4 -5 -25 -23 -10 -4 3 25 6 18 3 -27 -2 33 46 40 26 14 15 26
-21 -29 -25 -23 -11 3 -3 -22 -25 -30 -29 -26 -15 -22 -7 -8 -3 15 5 4 -3 6 -10 -3 -12 4 3 11 19 30 17 21 18 -15 -29 -8 20 28 52 46 32 22 15
-8 1 -14 -16 -2 -4 -24 -21 -29 -37 -43 -41 -48 -32 -8 3 4 3 -1 -5 1 -5 -26 -14 -7 11 15 9 47 46 18 11 11 -29 -18 8 20 22 22 53 53 44 41
3 -9 -12 -10 -7 -18 -33 -39 -51 -53 -53 -61 -54 -28 -8 -8 3 12 4 -1 21 6 2 -2 1 3 13 36 26 77 56 61 20 6 -11 8 14 26 11 17 46 43 40
10 -1 -5 -5 -8 -23 -32 -46 -49 -51 -53 -61 -62 -30 -4 -8 2 24 17 17 28 27 42 9 -4 2 20 37 37 30 41 57 71 33 -6 -9 12 24 11 9 19 31 36
26 8 -1 -4 -12 -17 -19 -36 -41 -37 -50 -44 -24 -22 31 32 19 31 40 26 29 23 26 18 19 19 31 21 80 42 4 2 19 9 1 -3 -21 5 6 4 12 8 7
24 12 -7 -14 -11 -8 -38 -39 -19 -31 -20 -20 -21 -3 31 49 30 43 52 45 37 48 68 39 48 44 45 59 79 35 8 1 17 8 3 8 -2 -21 -14 -1 1 1 -1
46 26 14 17 5 -6 -46 -20 -16 -16 8 9 -11 18 59 53 60 54 50 39 51 76 64 67 50 43 39 51 52 45 21 -2 8 19 -4 11 11 -5 -14 -12 -4 -7 -6
87 88 72 69 37 17 -22 -30 -38 -17 -11 -4 0 25 49 48 49 42 34 45 69 63 47 37 37 43 65 63 19 31 20 -11 17 14 19 26 10 13 6 3 -11 -9 -8
86 115 116 105 57 48 5 0 6 50 39 40 34 43 35 22 36 51 46 76 77 40 36 50 60 61 57 49 27 15 17 20 39 41 9 37 37 17 15 20 18 20 16
143 154 153 160 112 97 71 48 46 52 47 61 41 31 29 20 47 64 66 83 62 37 56 84 79 35 37 29 24 26 32 9 50 44 21 18 27 21 18 14 21 30 28
142 173 198 231 175 121 97 79 54 9 6 33 39 23 42 25 32 81 79 70 66 67 86 76 64 62 75 28 0 7 38 49 62 48 44 16 37 15 7 5 4 2 19
168 201 206 219 219 150 149 132 130 101 88 40 62 42 41 29 10 58 54 57 59 66 86 89 77 74 108 59 35 44 50 64 97 80 77 48 52 45 8 18 16 8 -1
238 216 220 253 261 216 197 165 143 110 83 66 44 21 18 21 7 34 71 75 57 51 49 66 84 66 82 59 53 56 59 64 92 82 106 100 71 72 48 24 33 25 20
278 266 243 273 272 268 250 208 196 186 151 107 45 52 30 12 -21 3 54 81 77 40 47 58 66 66 56 57 65 79 72 69 93 109 98 98 96 82 82 86 66 46 53

GFSSE_con_3kmhel_024.txt.gz
Helicity
42 60 -42 -43 -40 -31 -16 -22 -27 -19 1 22 30 22 11 9 6 8 10 7 4 -0 -0 2 6 13 14 24 46 53 44 38 51 37 15 7 28 27 14 20 33 29 38
-33 -77 -65 -43 -34 -27 -19 -29 -24 -16 3 19 22 23 14 12 11 12 9 2 -0 4 -7 -15 1 11 10 23 38 45 58 40 52 30 24 11 7 9 9 14 25 34 47
-80 -94 -74 -47 -34 -23 -29 -29 -26 -10 7 15 20 16 12 12 14 8 5 2 -2 -5 -11 -8 -2 6 11 23 31 33 37 39 41 36 21 20 19 13 5 3 8 14 29
-77 -104 -87 -45 -32 -28 -38 -27 -21 -5 7 14 10 8 12 12 9 8 5 9 14 17 21 -20 -4 4 7 23 25 31 53 26 35 31 18 15 21 18 4 7 12 21 21
-101 -87 -82 -52 -38 -37 -33 -25 -17 -3 2 5 3 7 10 13 5 4 13 18 22 23 21 4 -28 5 10 21 27 37 25 32 47 9 -39 -4 12 13 3 -0 4 6 11
-81 -77 -67 -54 -43 -38 -27 -20 -10 -5 -1 -1 5 14 15 9 10 17 22 23 21 20 14 14 20 19 16 22 34 36 28 8 23 -21 -29 -18 -2 -1 -8 3 -1 13 7
-74 -89 -73 -55 -45 -35 -23 -16 -10 -9 -6 2 8 14 15 15 17 24 24 22 19 13 10 12 15 20 22 15 24 33 26 30 25 9 -19 -21 -12 10 -4 13 21 15 14
-58 -85 -76 -53 -40 -30 -19 -16 -12 -12 -1 8 13 18 20 19 25 24 22 16 12 9 6 10 10 11 20 24 20 31 22 49 33 25 -6 -0 -7 11 13 18 25 9 13
-75 -79 -76 -67 -44 -26 -22 -17 -7 -6 9 13 15 19 23 20 24 31 25 18 14 10 10 11 3 1 10 28 42 28 28 54 44 10 11 11 7 11 20 23 27 13 21
-86 -79 -62 -51 -46 -42 -28 -4 -1 6 14 15 17 16 14 18 22 25 23 22 15 12 1 -1 -5 -5 11 27 42 42 35 44 27 23 23 10 1 11 16 14 22 16 26
-88 -76 -54 -39 -36 -37 -26 -13 2 10 14 17 16 21 19 7 15 19 25 20 18 13 11 4 -1 8 -20 -12 11 18 45 7 25 23 19 -15 -38 29 31 25 12 21 8
-60 -60 -48 -43 -29 -26 -17 -18 -19 -13 -11 -3 -1 2 -0 7 10 25 25 17 21 -1 -1 -0 -11 -7 25 12 3 2 29 9 -1 -2 -5 20 32 22 24 22 17 30 27
-46 -44 -37 -35 -25 -13 -10 -24 -25 -25 -16 -14 -10 -10 -7 -6 -1 11 6 3 1 3 -7 -10 -9 -5 6 22 27 23 32 11 -6 -24 -18 5 25 23 32 26 29 23 29
-36 -27 -32 -21 -13 -7 -21 -23 -25 -22 -25 -25 -28 -19 -14 -4 1 -1 2 -2 3 -5 -7 -6 11 18 22 19 22 22 23 9 10 -8 -8 10 21 9 19 34 27 28 20
-28 -27 -31 -18 -9 -14 -23 -31 -27 -27 -31 -40 -40 -30 -9 -3 -3 -2 -1 4 11 -0 12 1 12 13 -13 6 17 50 39 27 42 -0 -6 -1 10 18 -4 15 34 32 29
-23 -16 -25 -10 -14 -18 -22 -34 -30 -38 -47 -43 -47 -39 -15 -1 -2 5 10 11 12 15 13 28 5 5 -10 -5 20 23 30 24 23 10 -9 -6 -8 29 16 1 9 32 27
-11 -11 -6 -3 -13 -19 -18 -38 -48 -47 -46 -40 -50 -36 -5 13 13 11 17 21 25 24 31 22 28 40 21 28 43 48 31 13 -14 -0 -6 -3 -14 -21 -0 -6 -8 -3 8
-6 4 -2 -9 -13 -20 -32 -55 -46 -40 -29 -46 -40 -15 7 22 24 26 29 32 31 34 47 56 35 41 26 23 39 49 20 2 17 7 7 -1 -13 -25 -30 -11 -4 -0 1
31 3 -5 -8 -19 -12 -36 -51 -36 -28 -15 -34 -34 -14 7 24 43 34 39 33 43 43 49 61 59 58 44 25 30 39 35 -11 -10 -0 19 9 4 -11 -29 -25 -9 -6 -5
25 9 3 -3 -18 -20 -38 -51 -52 -43 -30 -32 -15 10 7 32 40 50 49 46 59 63 61 59 57 54 56 37 19 13 24 1 3 -7 -1 -2 13 4 -3 -11 -19 -21 -12
-6 -6 11 23 -1 -8 -13 -39 -48 -11 -26 -31 -20 -8 7 22 29 58 59 60 64 55 46 48 40 56 58 38 17 -4 -4 12 13 2 -7 2 -6 13 17 11 2 15 -3
25 29 29 50 49 42 27 -3 -4 12 -5 -9 -12 -10 6 14 29 59 67 59 50 39 31 30 60 64 50 27 24 2 1 -28 -18 -1 -5 -2 -25 -25 -1 14 18 28 28
29 46 55 73 88 88 67 26 30 33 8 -18 -28 -20 -1 22 39 57 53 35 26 42 29 52 90 92 44 23 34 34 30 34 28 -5 -3 11 -1 -12 -11 -10 -6 2 9
55 49 63 64 87 89 112 93 74 48 72 57 82 56 24 30 43 35 23 11 16 30 29 48 74 71 52 36 31 30 50 65 91 60 40 50 39 16 -7 -1 3 7 1
63 78 105 126 127 135 162 173 139 88 56 39 64 80 44 27 31 4 -2 4 25 39 21 34 57 77 64 49 65 64 68 80 91 91 68 74 63 51 38 31 17 12 9
87 62 103 107 124 179 192 184 186 152 111 74 46 55 51 8 -2 -38 -39 -1 28 20 14 26 38 49 52 27 30 48 61 74 91 108 69 54 73 69 65 65 54 37 30

GFSSE_con_3kmhel_030.txt.gz
Helicity
-102 -43 -24 -58 -81 -110 -61 -33 -21 -13 1 2 -7 -6 -2 -0 5 8 14 8 12 3 -8 -20 -11 -10 -8 -3 -9 -26 21 22 19 20 20 23 18 16 17 -3 -31 34 34
-134 -112 -70 -90 -101 -82 -51 -39 -21 -3 2 -10 -6 -1 -0 -1 -1 3 4 11 7 -1 -1 -7 -6 5 14 19 -14 -8 -1 9 17 14 19 12 9 7 13 36 83 40 30
-71 -44 -72 -76 -63 -53 -52 -31 -13 -1 -10 -7 1 -1 -2 -5 1 5 8 3 4 5 3 5 8 10 13 18 -18 -17 -6 12 9 10 28 17 -0 14 17 33 35 15 22
-45 -100 -72 -68 -61 -55 -46 -29 -13 -11 -4 7 5 1 -1 -3 1 4 15 1 -0 4 8 8 9 12 -5 -14 -14 -24 -22 -18 12 38 91 9 -2 6 3 -4 10 17 28
-61 -60 -62 -57 -53 -45 -38 -26 -15 -4 10 14 5 -0 1 -1 4 9 20 7 10 11 10 -3 -4 -3 -14 -16 2 -8 -35 -11 24 71 22 40 -4 6 -11 -8 1 -0 -6
-24 -41 -46 -49 -52 -43 -34 -22 -5 5 14 11 4 2 3 3 6 16 23 11 9 20 14 -2 -25 -16 -3 6 10 25 26 -0 44 6 -14 16 12 -1 -3 -0 22 9 9
-28 -29 -37 -63 -54 -38 -25 -13 7 13 17 10 9 6 7 4 7 14 19 16 17 17 14 18 11 9 8 7 12 17 28 13 2 9 13 9 4 -15 -7 -2 -0 -1 4
-23 -28 -39 -60 -49 -32 -20 -6 9 13 15 12 12 9 6 4 7 11 12 13 15 10 9 3 -0 10 2 2 17 28 29 -14 -1 1 7 7 5 -6 4 10 8 9 7
-33 -33 -39 -40 -52 -38 -27 -5 5 7 11 14 12 12 9 5 5 11 15 15 12 10 8 11 15 6 12 16 15 25 30 12 12 10 8 1 4 6 12 10 9 16 15
-34 -36 -36 -41 -38 -26 -16 -4 4 5 11 15 13 14 12 12 13 16 26 1 6 5 5 7 5 8 24 19 23 22 21 24 8 4 11 23 -0 9 14 4 6 9 9
-40 -34 -33 -35 -42 -20 -12 -7 4 7 16 15 23 17 39 25 10 28 -4 11 8 10 9 -5 -12 2 34 54 14 35 31 -11 -3 12 3 37 -7 -2 5 10 7 12 5
-23 -24 -33 -36 -34 -18 -5 -13 8 6 19 24 20 14 30 4 6 17 14 20 18 16 28 15 11 27 95 25 50 84 52 -4 -17 -17 22 27 -11 -3 5 15 14 10 7
-14 -27 -29 -36 -32 -17 -4 -1 -2 5 9 10 11 20 -1 13 12 15 11 33 36 35 52 58 86 36 8 11 10 1 -10 33 -5 -16 4 -6 -3 1 -5 7 18 13 6
-12 -18 -28 -32 -21 -11 -11 1 -0 2 9 10 5 4 6 22 1 12 4 2 23 25 24 15 17 22 38 28 13 9 -1 9 -9 -14 -23 -23 -10 8 15 24 29 23 17
-8 -19 -27 -31 -22 -16 -0 -0 2 1 5 5 -1 -2 11 14 5 15 -4 8 8 10 21 20 6 16 19 10 28 9 -2 -2 -0 -4 -9 -31 -16 -5 6 12 18 27 21
-14 -18 -24 -19 -22 -16 -13 1 4 -0 4 4 -2 -4 -0 13 3 10 4 3 9 12 11 39 -5 -1 34 21 25 14 -9 5 -2 5 -2 -28 -17 -5 -7 8 14 16 27
-6 -20 -21 -18 -19 -17 -11 -10 -2 -5 -2 -4 -5 -15 -7 3 -3 17 3 8 3 9 6 24 22 19 29 32 16 11 16 -20 21 -6 8 2 -13 -15 -10 -12 1 13 15
-10 -18 -20 -26 -24 -20 -15 -13 -8 -12 -8 -9 -10 -11 -10 -9 8 12 1 7 6 23 6 24 10 6 21 32 19 -6 -3 22 -15 5 1 5 -13 29 -16 -11 -7 3 2
-8 -21 -22 -27 -22 -22 -20 -18 -16 -18 -9 -10 -8 -2 -2 -7 6 13 4 13 13 10 7 12 23 23 29 36 40 13 -0 21 22 36 16 -3 4 -15 24 -1 1 6 7
-29 -21 -22 -31 -28 -30 -35 -23 -22 -19 -11 -8 -2 4 -4 -17 -3 2 7 -1 13 6 5 10 4 23 15 5 -19 8 -9 -0 -2 2 12 14 27 9 9 4 12 29 15
-25 -33 -33 -29 -32 -38 -31 -19 -13 -1 -4 -0 4 4 -3 -6 -13 -0 8 22 11 2 2 21 28 23 24 13 5 -5 3 1 -8 -6 -5 13 12 8 23 20 -6 16 34
-17 -28 -36 -27 -32 -24 -30 -17 -12 -5 -3 -5 -4 -4 -4 -3 -9 -8 11 5 -0 -11 14 33 22 7 3 12 6 10 23 26 14 -2 -4 2 -0 11 16 10 28 29 18
-1 -16 -23 -26 -30 -30 -24 -35 -24 -21 1 -13 -13 -8 -8 -5 -7 -6 -9 -1 -14 -17 20 39 41 24 7 25 9 3 21 24 36 37 23 4 11 3 9 7 13 18 16
31 -14 -21 -29 -31 -34 -17 -28 -2 -2 6 1 5 -5 -8 3 2 -9 -16 -6 -29 -27 -6 18 28 30 32 34 34 24 -5 7 23 48 33 30 25 18 19 12 29 22 15
35 -12 -25 -37 -39 -30 -19 -17 -3 -11 -9 -12 -11 -8 -1 -1 -1 -3 -12 -34 -49 -42 -22 -0 17 35 36 19 31 34 36 49 39 24 62 72 37 25 40 23 22 27 27
27 -11 -34 -34 -28 -20 -3 1 -6 -4 -15 -15 9 2 1 8 25 20 -2 -55 -71 -61 -38 -22 8 27 26 21 18 21 29 37 48 39 27 27 34 69 46 46 38 25 25

GFSSE_con_3kmhel_033.txt.gz
Helicity
-3 76 30 20 -19 -36 -37 -29 -19 -15 -16 -6 12 10 12 14 18 16 9 12 0 -5 -11 -16 -7 3 -2 4 -3 -8 2 12 17 20 27 33 36 36 41 27 -21 35 20
-81 22 26 -32 -21 -30 -34 -29 -16 -14 -19 -2 6 10 8 5 6 8 7 -1 -5 -5 -6 -6 -6 -4 -7 -11 -10 -10 -4 9 13 24 15 12 23 34 47 59 85 41 29
-119 -26 -53 -57 -34 -33 -38 -27 -15 -19 -18 0 7 5 -3 -1 4 -1 -4 0 1 1 4 3 4 -4 12 -14 -21 -8 -8 17 23 26 41 -30 7 28 41 36 40 35 24
-116 -24 -91 -91 -60 -55 -37 -23 -21 -22 -11 4 4 1 7 6 0 -2 -6 -4 -3 -1 1 -3 -1 6 10 17 -4 -15 -12 20 31 39 81 32 5 20 29 44 34 22 22
-38 -35 -102 -81 -70 -54 -35 -27 -25 -21 -6 4 2 6 6 4 8 11 2 1 1 0 -11 -16 0 7 9 10 24 2 -24 15 50 42 25 36 22 14 23 0 -8 4 15
-26 -64 -89 -75 -60 -43 -32 -27 -25 -8 9 4 3 1 2 8 6 7 6 10 7 9 -2 -7 -6 -1 2 15 23 33 -20 -13 72 38 7 42 47 8 4 7 26 18 13
-46 -56 -66 -61 -51 -40 -28 -24 -9 12 6 5 9 12 8 6 12 13 13 12 12 10 6 4 3 1 3 9 10 26 26 7 45 32 -3 -8 4 4 6 7 12 12 5
-32 -36 -42 -53 -41 -34 -23 -13 10 17 8 15 17 14 8 8 14 11 10 11 7 4 -1 1 -1 1 11 18 16 23 15 32 33 34 -8 23 10 4 8 10 12 12 8
-23 -14 -28 -35 -39 -32 -25 1 16 20 20 24 17 15 12 10 12 13 9 8 7 5 10 12 13 15 27 17 19 26 25 32 14 7 4 -7 17 4 12 13 11 7 10
-18 -15 -24 -25 -22 -17 -9 7 16 19 23 20 15 20 25 12 12 16 15 6 8 10 13 15 27 33 39 50 42 53 11 11 12 -13 17 31 17 14 10 9 12 5 5
-10 -28 -24 -21 -23 -28 -7 6 14 19 21 19 27 53 41 26 42 52 11 13 19 19 23 32 36 68 85 58 98 85 30 7 28 25 53 41 19 6 15 11 15 10 3
-12 -7 -12 -20 -23 -18 -4 -3 17 22 28 42 51 61 89 36 11 11 41 39 37 37 54 61 14 41 126 122 66 81 58 27 13 34 23 38 21 8 19 15 18 16 13
-7 -20 -11 -14 -30 -14 -20 -1 10 14 18 15 18 5 51 -1 16 19 39 49 39 77 20 62 52 51 66 63 31 49 45 68 42 119 5 26 18 5 13 18 12 12 9
-29 -20 -18 -8 -35 -10 -13 4 6 3 7 8 12 17 26 8 16 -51 10 31 26 51 16 41 56 42 -16 54 42 10 -1 47 -1 96 -13 -2 2 8 12 20 17 17 15
-14 -18 -19 -28 -27 -10 23 2 16 11 4 -2 -15 7 31 26 -11 8 10 -5 18 32 14 11 21 19 13 -7 16 62 8 -39 8 68 13 -16 -7 5 20 25 32 29 23
-2 -11 -9 -28 -30 2 3 24 11 8 -16 12 -10 2 8 24 -1 -5 7 34 20 42 -6 5 10 15 50 17 -3 47 -17 9 -40 -4 56 -22 -13 7 15 25 27 33 27
2 -13 -4 -19 -25 -10 -6 6 5 -2 5 -5 -4 -7 -2 4 -7 20 5 -7 9 30 -1 15 8 -13 -8 60 26 12 36 -3 6 -3 45 16 -2 -21 2 11 17 22 26
9 12 -16 -18 -18 -17 -15 -15 -5 2 -7 -9 -15 12 2 -4 -2 2 19 18 28 29 16 3 4 14 23 5 16 34 55 29 12 6 -12 10 13 63 -28 -16 11 12 12
8 19 -15 -21 -23 -18 -16 -15 -11 -9 -6 -14 -16 -8 36 8 0 0 39 32 1 19 19 13 3 15 23 38 71 25 40 -3 30 33 1 37 37 53 57 -11 -9 2 10
8 17 -25 -33 -22 -28 -33 -12 -19 -12 -16 -11 -15 -9 78 12 5 0 5 15 -2 3 -1 22 -1 2 -3 -22 43 41 22 -11 -10 33 56 37 35 7 58 1 17 27 11
14 4 -17 -27 -31 -36 -26 -20 -9 -7 -7 -5 -11 -2 18 5 -2 -4 -4 7 9 -5 23 17 19 -5 4 9 10 15 14 -10 8 6 -1 14 27 46 4 38 65 24 6
30 16 -9 -26 -27 -12 -19 -7 -19 -18 -21 -11 -10 1 -3 -1 -3 -7 -9 -16 7 2 26 30 3 10 0 4 -1 49 50 47 34 18 32 23 18 32 27 4 35 37 38
45 43 9 -9 -20 -18 -20 -28 4 -6 7 -16 -19 -14 -6 -3 -2 -5 -11 -8 14 -16 56 33 29 -4 8 14 -31 -3 -2 32 68 48 18 52 6 31 29 19 29 7 40
74 79 52 48 -14 -20 -22 -31 -10 2 -8 -13 -17 -16 -6 2 2 -3 -9 -4 -7 -16 32 8 21 10 16 39 25 7 -48 40 4 42 57 68 17 21 34 14 74 46 9
95 97 60 74 -7 -24 -16 -9 -10 -12 -17 -19 -20 -18 -8 39 0 1 11 -6 -8 -21 11 12 10 21 15 15 37 33 5 8 -13 19 81 114 94 59 72 8 1 89 44
75 68 51 39 0 -12 11 -7 4 4 -18 -25 -8 0 5 9 28 16 19 18 -15 -40 -24 -12 1 9 16 10 9 13 29 34 51 27 43 111 129 59 49 62 63 15 53

GFSSE_con_3kmhel_036.txt.gz
Helicity
8 34 66 74 -48 -22 12 4 -1 6 5 17 8 8 5 10 4 5 6 4 0 -8 1 10 15 13 8 8 8 8 8 12 18 33 44 62 68 59 44 14 -8 24 26
-29 -19 40 3 -29 -40 -27 -17 -1 -2 11 6 9 -2 2 5 4 4 7 4 -1 -2 5 8 8 10 2 -1 4 -5 -1 -10 -7 4 17 19 45 65 60 32 51 27 21
-53 -48 -26 -50 -45 -46 -27 -15 -11 0 -2 1 -4 -14 -4 -2 -4 2 4 4 1 -1 1 5 3 9 9 -1 -7 -12 -14 -12 16 11 8 56 21 50 48 43 30 32 28
-63 -37 -62 -60 -40 -27 -21 -15 -16 -12 -9 -2 -12 1 -1 -7 -4 -6 -8 -7 -10 -7 0 6 8 9 19 23 -2 -19 -25 7 33 34 72 75 16 26 31 30 33 35 32
-35 -76 -75 -58 -40 -25 -16 -17 -21 -14 -6 -1 2 -2 -8 -2 1 -3 -5 -10 -17 -9 2 4 9 16 15 24 23 -9 -45 18 43 75 8 21 22 19 24 27 27 23 36
-36 -122 -58 -49 -34 -25 -21 -23 -21 -14 -7 -2 7 16 17 8 1 -2 -10 -7 -8 2 6 8 14 11 15 21 33 34 -29 18 65 17 -3 63 20 14 14 33 26 22 18
-41 -118 -55 -54 -39 -28 -27 -23 -13 -12 6 16 20 24 18 12 9 9 2 4 8 2 -1 1 5 10 18 17 23 23 29 38 -8 0 29 8 10 13 14 9 9 11 19
-51 -99 -66 -58 -39 -29 -21 -13 3 -9 18 25 31 28 25 20 13 6 2 1 1 0 7 9 14 28 27 28 21 10 26 54 10 25 35 7 7 12 15 14 14 11 16
-45 -51 -56 -46 -41 -33 -20 -7 14 16 24 31 34 31 32 30 20 10 5 1 0 5 15 30 42 56 52 42 35 25 46 51 20 5 11 12 16 22 23 13 12 14 11
-18 -54 -37 -42 -29 -19 -14 6 19 22 35 36 30 34 38 40 42 17 11 11 21 28 28 27 38 75 92 63 53 22 -6 4 -3 48 40 -4 25 22 24 18 17 14 12
41 -42 -25 -22 -28 -15 -20 12 20 26 41 30 26 21 39 36 48 64 10 26 33 24 33 26 53 86 98 55 19 53 25 -25 8 52 34 31 34 27 22 20 12 13 17
36 -16 -21 -23 -25 -10 -12 3 26 38 54 29 34 36 7 58 36 71 35 35 37 25 31 8 -4 20 55 98 66 -3 31 -28 76 91 32 54 46 31 31 23 19 17 15
-7 -35 -15 -21 -29 -9 18 9 22 51 43 38 122 72 -15 53 27 25 39 35 29 0 36 39 21 36 59 128 138 40 35 21 77 99 30 63 52 34 39 29 22 15 12
25 25 30 37 -31 -18 26 -11 15 47 24 69 101 79 50 -14 -1 -8 -4 20 22 107 36 16 17 56 6 75 74 29 17 32 95 40 0 33 52 39 41 40 34 25 17
-24 21 108 102 -19 -24 -2 -2 2 15 11 57 55 7 -1 39 5 27 17 15 14 37 8 47 25 24 9 4 27 75 -38 -1 -29 8 1 12 41 37 37 43 35 34 31
-42 9 123 106 -9 -1 19 29 24 -4 -1 18 48 39 15 13 10 14 10 4 41 45 12 33 20 0 -2 15 30 45 8 -4 -24 23 30 -15 -5 16 29 31 35 29 25
-51 34 129 112 32 45 0 -8 10 42 21 -12 22 68 18 4 3 6 15 29 15 42 27 20 19 5 -54 31 18 32 33 6 -5 41 39 20 -21 -10 11 36 37 35 35
34 59 139 44 21 0 6 -3 20 16 0 3 -1 61 21 -4 -6 -3 -10 11 19 26 25 9 47 32 1 46 15 17 24 33 -22 38 35 49 17 11 -9 -11 27 37 32
82 150 135 33 78 38 -3 1 -5 6 -11 -10 -11 69 57 20 -1 -8 -24 10 12 7 19 30 -4 9 34 43 27 32 0 -20 -5 38 58 68 86 5 -35 -13 -13 14 19
161 188 169 109 87 82 -11 -12 -18 -6 -13 -18 -15 -22 109 39 15 8 16 9 7 34 22 22 24 3 16 0 20 39 18 14 31 50 43 34 83 76 26 24 0 -17 18
177 185 144 116 52 109 44 -8 -10 -11 -18 -20 -18 -21 71 32 14 -2 -7 19 26 21 41 40 33 8 13 -17 5 36 37 -12 46 63 37 -1 60 0 38 26 25 39 7
202 209 159 104 62 102 92 8 -21 -25 -22 6 -22 -17 77 43 10 -4 -1 5 4 36 15 38 38 1 37 -6 -19 58 52 33 17 -6 55 51 11 13 24 74 72 43 25
213 245 199 129 109 116 99 28 -37 -25 -30 22 2 -10 53 38 19 -5 -17 -17 4 26 38 33 30 27 19 -7 -19 12 72 69 49 45 52 78 38 89 52 80 53 100 75
212 248 227 154 103 107 64 18 5 -2 -1 6 21 -10 55 60 23 31 18 0 11 20 55 8 15 13 11 16 -24 1 -17 27 107 53 41 114 102 110 76 113 105 73 75
198 273 265 203 138 97 43 47 19 14 -9 -19 -10 -4 34 89 31 5 58 25 12 -23 18 26 18 1 -6 -3 1 -22 -16 32 16 16 36 132 79 123 139 50 133 99 67
175 256 241 210 136 105 51 -7 14 37 -12 -13 -8 -14 8 79 66 11 90 46 30 -7 14 21 10 4 0 -11 -19 -2 12 26 49 57 67 120 147 132 150 127 103 128 67